Location: Bay Shore Mobile Home Park
(38.5762°N, 75.0841°W)
Time: 19:37:14
(UTC+00:00)

Cosmos 2082 Rocket - Pass Details

Date: 15 November 2025
Orbit: 834 x 851 km, 71.0° (Epoch: 08 December)

Event Time Altitude Azimuth Distance (km) Brightness Sun altitude
Rises 23:23:25 0° 342° (NNW) 3,387 5.5 -18.9°
Reaches altitude 10° 23:25:57 10° 348° (NNW) 2,450 4.6 -19.4°
Maximum altitude 23:31:24 50° 63° (ENE) 1,057 2.3 -20.4°
Enters shadow 23:33:12 36° 113° (ESE) 1,288 2.7 -20.8°
